RYR44K EINN-LEGE

Flight info

Callsign RYR44K
Flight time N/A
Altitude 35000
Route KURUM3B KURUM DCT CRK DCT LEDGO DCT DOLUR DCT TERKU DCT KORER UM616 TUPAR DCT CNA DCT SECHE DCT GAI DCT PPG A27 KANIG KANIG2F
Aircraft B738/M-VGDW/C

Departure

Time 2026-05-07 18:26
Airport Shannon Airport (EINN)

Arrival

Time N/A
Airport Girona-Costa Brava Airport (LEGE)
Time Latitude Longitude Altitude Speed Heading
2026-05-07 17:57 52.69372 -8.92066 20 ft 0 kts 191°
2026-05-07 18:16 52.69378 -8.92064 20 ft 4 kts 191°
2026-05-07 18:16 52.69402 -8.92057 20 ft 2 kts 191°
2026-05-07 18:17 52.69424 -8.92048 20 ft 4 kts 201°
2026-05-07 18:17 52.69449 -8.92031 22 ft 4 kts 194°
2026-05-07 18:17 52.69462 -8.92024 22 ft 3 kts 104°
2026-05-07 18:17 52.69468 -8.92063 21 ft 2 kts 103°
2026-05-07 18:18 52.69468 -8.92066 21 ft 1 kts 103°
2026-05-07 18:20 52.69467 -8.92061 21 ft 1 kts 103°
2026-05-07 18:20 52.69462 -8.92026 22 ft 5 kts 105°
2026-05-07 18:20 52.69450 -8.91953 20 ft 8 kts 105°
2026-05-07 18:21 52.69432 -8.91843 19 ft 11 kts 110°
2026-05-07 18:21 52.69366 -8.91764 19 ft 13 kts 164°
2026-05-07 18:21 52.69291 -8.91672 19 ft 15 kts 131°
2026-05-07 18:21 52.69264 -8.91528 20 ft 16 kts 37°
2026-05-07 18:22 52.69376 -8.91462 17 ft 18 kts 18°
2026-05-07 18:22 52.69461 -8.91416 17 ft 20 kts 18°
2026-05-07 18:22 52.69651 -8.91312 15 ft 23 kts 18°
2026-05-07 18:22 52.69811 -8.91224 14 ft 25 kts 19°
2026-05-07 18:23 52.69983 -8.91127 12 ft 27 kts 18°
2026-05-07 18:23 52.70161 -8.91028 10 ft 26 kts 19°
2026-05-07 18:23 52.70330 -8.90936 9 ft 25 kts 18°
2026-05-07 18:23 52.70487 -8.90851 8 ft 23 kts 19°
2026-05-07 18:24 52.70634 -8.90766 6 ft 22 kts 19°
2026-05-07 18:24 52.70781 -8.90683 5 ft 22 kts 19°
2026-05-07 18:24 52.70916 -8.90722 5 ft 19 kts 323°
2026-05-07 18:24 52.70966 -8.90846 4 ft 14 kts 244°
2026-05-07 18:25 52.70949 -8.90887 4 ft 0 kts 232°
2026-05-07 18:25 52.70938 -8.90910 4 ft 11 kts 232°
2026-05-07 18:25 52.70700 -8.91417 7 ft 99 kts 232°
2026-05-07 18:25 52.70122 -8.92649 102 ft 164 kts 233°
2026-05-07 18:26 52.69389 -8.94236 929 ft 182 kts 234°
2026-05-07 18:26 52.68561 -8.95840 2035 ft 187 kts 217°
2026-05-07 18:26 52.67281 -8.96346 3000 ft 197 kts 169°
2026-05-07 18:26 52.66069 -8.95400 4260 ft 190 kts 159°
2026-05-07 18:27 52.64727 -8.94801 4824 ft 213 kts 175°
2026-05-07 18:27 52.63144 -8.94376 4974 ft 253 kts 172°
2026-05-07 18:27 52.61288 -8.93660 4981 ft 296 kts 162°
2026-05-07 18:27 52.59492 -8.91580 4992 ft 340 kts 131°
2026-05-07 18:28 52.58412 -8.87992 5125 ft 370 kts 102°
2026-05-07 18:28 52.58278 -8.83849 6629 ft 349 kts 91°
2026-05-07 18:28 52.58230 -8.80094 8398 ft 301 kts 94°
2026-05-07 18:28 52.58130 -8.77040 9516 ft 244 kts 96°
2026-05-07 18:29 52.58011 -8.74349 9641 ft 233 kts 97°
2026-05-07 18:29 52.57871 -8.71667 9631 ft 232 kts 97°
2026-05-07 18:29 52.57723 -8.69058 9621 ft 232 kts 97°
2026-05-07 18:29 52.57565 -8.66414 9616 ft 231 kts 98°
2026-05-07 18:30 52.57403 -8.63793 9624 ft 230 kts 98°
2026-05-07 18:30 52.57237 -8.61183 9716 ft 228 kts 98°
2026-05-07 18:30 52.57060 -8.58480 9904 ft 251 kts 98°
2026-05-07 18:30 52.56861 -8.55504 10127 ft 275 kts 98°
2026-05-07 18:31 52.56641 -8.52254 10425 ft 295 kts 98°
2026-05-07 18:31 52.56412 -8.48863 11033 ft 302 kts 98°
2026-05-07 18:31 52.56177 -8.45399 11748 ft 306 kts 98°
2026-05-07 18:31 52.55938 -8.41904 12492 ft 310 kts 99°
2026-05-07 18:32 52.55692 -8.38352 13198 ft 315 kts 99°
2026-05-07 18:32 52.55441 -8.34741 13891 ft 320 kts 99°
2026-05-07 18:32 52.55186 -8.31093 14563 ft 323 kts 99°
2026-05-07 18:32 52.54930 -8.27448 15255 ft 325 kts 99°
2026-05-07 18:33 52.54843 -8.26209 15491 ft 326 kts 99°
2026-05-07 18:33 52.54772 -8.25203 15673 ft 327 kts 99°
2026-05-07 18:33 52.54506 -8.21455 16325 ft 331 kts 100°
2026-05-07 18:33 52.54237 -8.17686 17002 ft 334 kts 100°
2026-05-07 18:34 52.53966 -8.13885 17703 ft 336 kts 100°
2026-05-07 18:34 52.53690 -8.10049 18353 ft 340 kts 100°
2026-05-07 18:34 52.53409 -8.06168 18908 ft 343 kts 100°
2026-05-07 18:34 52.53130 -8.02319 19503 ft 345 kts 100°
2026-05-07 18:35 52.52845 -7.98391 20092 ft 348 kts 100°
2026-05-07 18:35 52.52556 -7.94439 20648 ft 351 kts 100°
2026-05-07 18:35 52.52262 -7.90428 21202 ft 355 kts 100°
2026-05-07 18:35 52.51964 -7.86401 21791 ft 357 kts 101°
2026-05-07 18:36 52.51617 -7.82353 22357 ft 358 kts 107°
2026-05-07 18:36 52.50580 -7.78695 22721 ft 352 kts 135°
2026-05-07 18:36 52.48743 -7.76201 23481 ft 338 kts 155°
2026-05-07 18:36 52.46560 -7.74859 23968 ft 335 kts 172°
2026-05-07 18:37 52.44208 -7.74713 23975 ft 346 kts 191°
2026-05-07 18:37 52.41881 -7.75847 24151 ft 355 kts 207°
2026-05-07 18:37 52.39816 -7.78104 24224 ft 367 kts 219°
2026-05-07 18:37 52.37807 -7.80752 24350 ft 379 kts 219°
2026-05-07 18:38 52.35715 -7.83523 24430 ft 391 kts 219°
2026-05-07 18:38 52.33564 -7.86362 24498 ft 403 kts 219°
2026-05-07 18:38 52.31347 -7.89266 24572 ft 414 kts 218°
2026-05-07 18:38 52.29067 -7.92230 24670 ft 423 kts 218°
2026-05-07 18:39 52.26744 -7.95233 24943 ft 427 kts 218°
2026-05-07 18:39 52.24406 -7.98241 25323 ft 428 kts 218°
2026-05-07 18:39 52.22065 -8.01246 25662 ft 430 kts 218°
2026-05-07 18:39 52.19702 -8.04273 25951 ft 434 kts 218°
2026-05-07 18:40 52.17321 -8.07319 26261 ft 436 kts 218°
2026-05-07 18:40 52.14921 -8.10385 26598 ft 438 kts 218°
2026-05-07 18:40 52.12517 -8.13452 26905 ft 440 kts 218°
2026-05-07 18:40 52.10095 -8.16538 27187 ft 443 kts 218°
2026-05-07 18:41 52.07663 -8.19633 27471 ft 446 kts 218°
2026-05-07 18:41 52.05215 -8.22744 27761 ft 448 kts 218°
2026-05-07 18:41 52.02760 -8.25859 28088 ft 448 kts 218°
2026-05-07 18:41 52.00301 -8.28975 28520 ft 447 kts 218°
2026-05-07 18:42 51.97863 -8.32060 28978 ft 445 kts 218°
2026-05-07 18:42 51.95408 -8.35165 29262 ft 448 kts 219°
2026-05-07 18:42 51.92937 -8.38283 29320 ft 455 kts 219°
2026-05-07 18:42 51.90380 -8.41350 29573 ft 458 kts 212°
2026-05-07 18:43 51.87426 -8.43305 29760 ft 464 kts 191°
2026-05-07 18:43 51.84219 -8.43452 30342 ft 460 kts 174°
2026-05-07 18:43 51.81134 -8.42284 31061 ft 453 kts 162°
2026-05-07 18:43 51.78270 -8.40118 31272 ft 460 kts 148°
2026-05-07 18:44 51.75816 -8.36705 31278 ft 469 kts 135°
2026-05-07 18:44 51.72540 -8.31352 32064 ft 461 kts 137°
2026-05-07 18:44 51.65496 -8.20311 32526 ft 468 kts 137°
2026-05-07 18:44 51.61766 -8.14540 33451 ft 457 kts 138°
2026-05-07 18:45 51.59508 -8.11054 33837 ft 455 kts 138°
2026-05-07 18:45 51.57220 -8.07528 33963 ft 459 kts 138°
2026-05-07 18:45 51.54900 -8.03957 34073 ft 462 kts 138°
2026-05-07 18:45 51.52589 -8.00402 34315 ft 461 kts 138°
2026-05-07 18:46 51.50266 -7.96829 34565 ft 460 kts 138°
2026-05-07 18:46 51.47950 -7.93273 34754 ft 461 kts 138°
2026-05-07 18:46 51.45630 -7.89717 34906 ft 462 kts 138°
2026-05-07 18:47 51.40941 -7.82545 34966 ft 467 kts 138°
2026-05-07 18:47 51.36259 -7.75404 34977 ft 462 kts 138°
2026-05-07 18:48 51.31647 -7.68389 34974 ft 459 kts 138°
2026-05-07 18:48 51.27026 -7.61379 35003 ft 457 kts 138°
2026-05-07 18:49 51.22408 -7.54401 34987 ft 456 kts 139°
2026-05-07 18:49 51.18546 -7.48597 35005 ft 455 kts 139°
2026-05-07 18:50 51.13974 -7.41746 34993 ft 454 kts 139°
2026-05-07 18:50 51.09374 -7.34867 35000 ft 454 kts 139°
2026-05-07 18:51 51.04765 -7.27993 34996 ft 454 kts 139°
2026-05-07 18:51 51.00141 -7.21116 35001 ft 455 kts 139°
2026-05-07 18:52 50.95515 -7.14254 35005 ft 456 kts 139°
2026-05-07 18:52 50.90882 -7.07402 34999 ft 457 kts 139°
2026-05-07 18:53 50.86225 -7.00534 35002 ft 457 kts 139°
2026-05-07 18:53 50.81570 -6.93689 35001 ft 457 kts 139°
2026-05-07 18:54 50.76910 -6.86856 35005 ft 457 kts 139°
2026-05-07 18:54 50.72239 -6.80026 35003 ft 457 kts 139°
2026-05-07 18:55 50.67572 -6.73221 35000 ft 457 kts 139°
2026-05-07 18:55 50.62900 -6.66430 35003 ft 456 kts 139°
2026-05-07 18:56 50.58269 -6.59716 35007 ft 456 kts 139°
2026-05-07 18:56 50.53597 -6.52961 35005 ft 456 kts 139°
2026-05-07 18:57 50.48913 -6.46217 35005 ft 456 kts 140°
2026-05-07 18:57 50.44242 -6.39500 34997 ft 455 kts 140°
2026-05-07 18:58 50.39566 -6.32791 35009 ft 455 kts 140°
2026-05-07 18:58 50.34888 -6.26103 35003 ft 456 kts 140°
2026-05-07 18:59 50.30196 -6.19414 35006 ft 456 kts 140°
2026-05-07 18:59 50.25528 -6.12779 34992 ft 456 kts 140°
2026-05-07 19:00 50.20826 -6.06112 35016 ft 457 kts 140°
2026-05-07 19:00 50.16119 -5.99449 34996 ft 457 kts 140°
2026-05-07 19:01 50.11399 -5.92800 35006 ft 457 kts 140°
2026-05-07 19:01 50.06683 -5.86173 34986 ft 457 kts 140°
2026-05-07 19:02 50.01968 -5.79562 35001 ft 455 kts 141°
2026-05-07 19:02 49.97264 -5.72984 34997 ft 455 kts 141°
2026-05-07 19:03 49.92556 -5.66419 34999 ft 454 kts 141°
2026-05-07 19:03 49.87857 -5.59886 34995 ft 454 kts 141°
2026-05-07 19:04 49.83147 -5.53353 34982 ft 454 kts 141°
2026-05-07 19:04 49.78436 -5.46838 34994 ft 454 kts 141°
2026-05-07 19:05 49.73719 -5.40332 34988 ft 454 kts 141°
2026-05-07 19:05 49.68999 -5.33839 34997 ft 454 kts 141°
2026-05-07 19:06 49.64268 -5.27349 34994 ft 455 kts 141°
2026-05-07 19:06 49.57172 -5.17646 34998 ft 455 kts 141°
2026-05-07 19:07 49.52436 -5.11188 34991 ft 455 kts 141°
2026-05-07 19:07 49.47668 -5.04800 34986 ft 454 kts 145°
2026-05-07 19:08 49.42486 -4.99373 35001 ft 452 kts 150°
2026-05-07 19:08 49.37198 -4.94145 34999 ft 452 kts 150°
2026-05-07 19:09 49.31930 -4.88871 35000 ft 452 kts 149°
2026-05-07 19:09 49.26664 -4.83542 34997 ft 453 kts 149°
2026-05-07 19:10 49.21412 -4.78215 34982 ft 454 kts 149°
2026-05-07 19:10 49.16147 -4.72887 34985 ft 453 kts 149°
2026-05-07 19:11 49.10880 -4.67575 34986 ft 454 kts 149°
2026-05-07 19:11 49.05601 -4.62265 34996 ft 454 kts 149°
2026-05-07 19:12 49.00323 -4.56971 34995 ft 455 kts 149°
2026-05-07 19:12 48.96158 -4.52802 34980 ft 455 kts 150°
2026-05-07 19:13 48.91553 -4.48202 34997 ft 455 kts 150°
2026-05-07 19:13 48.86251 -4.42920 34991 ft 456 kts 150°
2026-05-07 19:14 48.80943 -4.37645 34996 ft 457 kts 150°
2026-05-07 19:14 48.75619 -4.32367 35004 ft 456 kts 150°
2026-05-07 19:15 48.70303 -4.27111 34998 ft 456 kts 150°
2026-05-07 19:15 48.64995 -4.21877 34998 ft 455 kts 150°
2026-05-07 19:16 48.59686 -4.16653 34997 ft 455 kts 150°
2026-05-07 19:16 48.54388 -4.11455 34985 ft 454 kts 150°
2026-05-07 19:17 48.49094 -4.06274 35015 ft 454 kts 150°